Regional Weather Roundup
Issued by NWS Cleveland, OH

Home | Current Version | Previous Version | Text Only | Print | Product List | Glossary Off
Versions: 1 2 3 4 5 6 7 8 9 10 11 12 13 14 15 16 17 18 19 20 21 22 23 24 25 26 27 28 29 30 31 32 33 34 35 36 37 38 39 40 41 42 43 44 45 46 47 48 49 50

000
ASUS41 KCLE 220800
RWRCLE
OHIO REGIONAL WEATHER ROUNDUP
NATIONAL WEATHER SERVICE WILMINGTON, OH
400 AM EDT FRI SEP 22 2017

NOTE: "FAIR" INDICATES FEW OR NO CLOUDS BELOW 12,000 FEET WITH NO
SIGNIFICANT WEATHER AND/OR OBSTRUCTIONS TO VISIBILITY.

OHZ001>008-015>018-024>027-034-035-043-044-220900-
   NORTHWEST OHIO

CITY           SKY/WX    TMP DP  RH WIND       PRES   REMARKS
DEFIANCE       FAIR      69  67  93 CALM      30.08S FOG
FINDLAY        FAIR      69  65  86 CALM      30.08S
TOLEDO EXPRESS FAIR      70  70 100 CALM      30.08S
TOLEDO EXEC    FAIR      70  67  90 SE3       30.09S FOG
LIMA           FAIR      71  66  84 S6        30.09F
$$

OHZ009>014-019>023-028>033-038-089-220900-
   NORTHEAST OHIO

CITY           SKY/WX    TMP DP  RH WIND       PRES   REMARKS
CLE-HOPKINS    FAIR      68  62  81 CALM      30.11S
CLE-LAKEFRONT  FAIR      70  60  70 SE6       30.07F
CUY CO. ARPT   NOT AVBL
LORAIN-ELYRIA  FAIR      65  59  81 CALM      30.10S
ASHTABULA      FAIR      59  58  96 CALM      30.12S
AKRON-CANTON   FAIR      67  61  81 CALM      30.11S
WOOSTER        NOT AVBL
MANSFIELD      FAIR      67  65  93 S3        30.12R
YOUNGSTOWN     FAIR      62  61  96 CALM      30.12R
$$

OHZ042-051>053-060>062-070>072-077>081-220900-
  SOUTHWEST OHIO

CITY           SKY/WX    TMP DP  RH WIND       PRES   REMARKS
CINC-COVINGTON FAIR      71  71 100 CALM      30.08F
CINC-LUNKEN    FAIR      68  68 100 CALM      30.08F FOG
HAMILTON       FAIR      68  68 100 CALM      30.09F
DAYTON         NOT AVBL
WRIGHT-PAT AFB FAIR      69  69 100 CALM      30.09S
DAYTON GENERAL FAIR      73  66  78 CALM      30.09S
WILMINGTON     MOCLDY    67  66  97 CALM      30.10S
$$

OHZ036-037-039>041-045>050-054>059-063>069-073>076-082>088-220900-
  CENTRAL AND SOUTHEAST OHIO

CITY           SKY/WX    TMP DP  RH WIND       PRES   REMARKS
COLUMBUS       FAIR      68  67  96 E3        30.09S
OSU AIRPORT    FAIR      68  67  96 CALM      30.09S
BOLTON FIELD   FAIR      64  64  98 CALM      30.09F
RICKENBACK AFB NOT AVBL
NEWARK         FOG       64  63  96 CALM      30.09F VSB 1
MARION         MOCLDY    68  63  84 CALM      30.10S
LANCASTER      FAIR      63  62  97 N3        30.10S FOG
ZANESVILLE     FAIR      64  62  93 CALM      30.10S FOG
NEW PHILLY     FAIR      62  62 100 CALM      30.11S FOG
$$




USA.gov is the U.S. government's official web portal to all federal, state and local government web resources and services.